AirNav   Pilot Hours Calculator
 
 1178 users online  

2KY4 Oz Airport
Elizabethtown, Kentucky, USA

GOING TO ELIZABETHTOWN?


FAA INFORMATION EFFECTIVE 18 JULY 2019

Location

FAA Identifier: 2KY4
Lat/Long: 37-39-18.0000N / 085-48-49.0000W
37-39.300000N / 085-48.816667W
37.6550000 / -85.8136111
(estimated)
Elevation: 820 ft. / 250 m (estimated)
Variation: 03W (1995)
From city: 6 miles E of ELIZABETHTOWN, KY
Time zone: UTC -4 (UTC -5 during Standard Time)
Zip code: 42701

Airport Operations

Airport use: Private use. Permission required prior to landing
Activation date: 04/1999
Control tower: no
ARTCC: INDIANAPOLIS CENTER
FSS: LOUISVILLE FLIGHT SERVICE STATION
Attendance: UNATNDD
Wind indicator: yes
Segmented circle: no

Airport Communications

WX AWOS-3 at EKX (6 nm W): 121.025 (270-763-6433)
WX AWOS-3 at BRY (18 nm NE): 119.925 (502-348-1867)

Nearby radio navigation aids

VOR radial/distance  VOR name  Freq  Var
EWOr281/6.7NEW HOPE VOR/DME110.8001E
FTKr155/16.9FORT KNOX VOR/DME109.6001W
MYSr126/(25.0)MYSTIC VOR108.2001W
IIUr202/29.1LOUISVILLE VORTAC114.8001E
BQMr196/35.2BOWMAN VOR/DME112.2004W

 
NDB name  Hdg/Dist  Freq  Var  ID
GODMAN160/19.839603WGOI --. --- ..

Airport Services

Runway Information

Runway 14/32

Dimensions: 2930 x 85 ft. / 893 x 26 m
Surface: turf
Runway edge markings: RY 14/32 HAS WHITE MARKERS AT RY ENDS.
RUNWAY 14  RUNWAY 32
Traffic pattern: leftleft
Markings: NSTDNSTD

Airport Ownership and Management from official FAA records

Ownership: Privately-owned
Owner: JAMES LIVERS
601 THOROUGHBRED LANE
ELIZABETHTOWN, KY 42701
Manager: JAMES LIVERS
601 THOROUGHBRED LANE
ELIZABETHTOWN, KY 42701

Airport Operational Statistics

Aircraft based on the field: 2
Single engine airplanes: 1
Ultralights: 1
    

Additional Remarks

THREE RADIO TOWERS 320 FT TO 650 FT MSL LCTD 2 NM NORTHWEST OF ARPT.
OWNER DESIRES ARPT NOT BE CHARTED.
FOR CD CTC LOUISVILLE APCH AT 502-375-7499

Instrument Procedures

There are no published instrument procedures at 2KY4.

Some nearby airports with instrument procedures:

KEKX - Addington Field Airport (6 nm W)
KFTK - Godman Army Airfield (17 nm NW)
KBRY - Samuels Field Airport (18 nm NE)
M20 - Leitchfield-Grayson County Airport (26 nm SW)
6I2 - Lebanon Springfield Airport-George Hoerter Field (27 nm E)
 
Loc | Ops | Rwys | IFR | FBO | Links
Com | Nav | Svcs | Stats | Notes

City of Findlay
 
Area around 2KY4 (Oz Airport)
 
Road maps at: MapQuest Bing Google
 
Aerial photo
No photo
 
Sectional chart

 
Airport distance calculator
Flying to Oz Airport? Find the distance to fly.

From to 2KY4

Sunrise and sunset
Times for 21-Jul-2019
 Local
(UTC-4)
 Zulu
(UTC)
Morning civil twilight06:0910:09
Sunrise06:3910:39
Sunset21:0001:00
Evening civil twilight21:3001:30

Current date and time
Zulu (UTC)  21-Jul-2019 20:19:42
Local (UTC-4)  21-Jul-2019 16:19:42
 
METAR
KEKX 
4nm NW 
211935Z AUTO 31005KT 10SM -RA SCT016 SCT042 BKN055 24/20 A3000 RMK AO2 LTG DSNT NW THRU NE T02400201
KFTK 
16nm NW 
211956Z AUTO 20006KT 10SM VCTS FEW003 FEW023 SCT045 SCT080 25/23 A2997 RMK AO2 PK WND 15030/34 RAB14E25RAB32E52 SLP145 P0013 T02540230
KBRY 
18nm NE 
211935Z AUTO 00000KT 10SM SCT014 SCT028 25/23 A2998 RMK AO1
TAF
KFTK 
16nm NW 
211721Z 2117/2223 23009KT 9999 FEW030 QNH2997INS TEMPO 2118/2122 4800 -TSRA BKN050CB BECMG 2121/2122 22009KT 9000 -SHRA BKN050 QNH2994INS TEMPO 2122/2124 30025G35KT 4800 -TSRA BKN050CB BECMG 2200/2201 20006KT 9999 NSW BKN050 QNH2994INS BECMG 2212/2213 22009KT 9000 -SHRA BKN040 QNH2994INS TEMPO 2216/2219 33025G35KT -TSRA BKN025CB OVC040 BECMG 2219/2220 01010G15KT 9000 -SHRA BKN010 QNH2990INS BECMG 2221/2222 02012G18KT 9999 NSW FEW025 QNH2991INS TX32/2118Z TN24/2211Z
NOTAMs
Click for the latest NOTAMs
NOTAMs are issued by the DoD/FAA and will open in a separate window not controlled by AirNav.

 

 
 

Would you like to see your business listed on this page?

 If your business provides an interesting product or service to pilots, flight crews, aircraft, or users of the Oz Airport, you should consider listing it here.  To start the listing process, click on the button below
 
Add a business
 

Other Pages about Oz Airport

Update a link
 
Copyright © AirNav, LLC. All rights reserved. Privacy Policy  Contact